Location: La Brionne
(46.1728°N, 1.7849°E)
Time: 14:27:27
(UTC+00:00)

ISS - Visible Passes

Search period start: 27 February 2024 00:00
Search period end: 08 March 2024 00:00
Orbit: 414 x 422 km, 51.6° (Epoch: 27 February)

Date Brightness Start Highest point End Pass type
(mag) Time Alt. Az. Time Alt. Az. Time Alt. Az.
27 Feb -0.2 03:34:09 11° ENE 03:34:09 11° ENE 03:34:21 10° ENE visible
27 Feb -2.4 05:07:05 24° NW 05:08:16 31° N 05:11:21 10° ENE visible
28 Feb -2.0 04:21:03 28° NNE 04:21:03 28° NNE 04:23:22 10° ENE visible
28 Feb -2.8 05:54:20 10° WNW 05:57:35 41° NNE 06:00:49 10° E visible
29 Feb -0.4 03:34:59 13° NE 03:34:59 13° NE 03:35:24 10° ENE visible
29 Feb -2.5 05:07:55 21° NW 05:09:34 35° N 05:12:43 10° ENE visible
01 Mar -2.2 04:21:50 31° NNE 04:21:50 31° NNE 04:24:35 10° ENE visible
01 Mar -3.5 05:55:15 10° WNW 05:58:38 71° NNE 06:02:01 10° ESE visible
02 Mar -0.5 03:35:44 14° ENE 03:35:44 14° ENE 03:36:26 10° ENE visible
02 Mar -3.1 05:08:39 22° NW 05:10:36 51° NNE 05:13:55 10° E visible
03 Mar -2.7 04:22:34 40° NNE 04:22:34 40° NNE 04:25:42 10° E visible
03 Mar -3.4 05:56:02 10° WNW 05:59:21 53° SSW 06:02:39 10° SE visible
04 Mar -0.7 03:36:29 16° ENE 03:36:29 16° ENE 03:37:25 10° ENE visible
04 Mar -3.8 05:09:25 24° WNW 05:11:18 82° SSW 05:14:41 10° ESE visible
05 Mar -3.5 04:23:23 66° NE 04:23:23 66° NE 04:26:33 10° ESE visible
06 Mar -0.8 03:37:25 16° E 03:37:25 16° E 03:38:15 10° E visible
06 Mar -3.0 05:10:22 25° W 05:11:39 35° SW 05:14:45 10° SSE visible
07 Mar -2.8 04:24:30 38° SSE 04:24:30 38° SSE 04:26:50 10° SE visible
